TimeMDT,TemperatureF,Dew PointF,Humidity,Sea Level PressureIn,VisibilityMPH,Wind Direction,Wind SpeedMPH,Gust SpeedMPH,PrecipitationIn,Events,Conditions,WindDirDegrees,DateUTC
12:55 AM,28.9,21.9,75,30.12,10.0,Calm,Calm,-,N/A,,Overcast,0,2013-03-16 06:55:00
1:55 AM,28.9,23.0,78,30.15,10.0,Calm,Calm,-,N/A,,Overcast,0,2013-03-16 07:55:00
2:55 AM,28.9,21.9,75,30.15,10.0,NNE,11.5,-,N/A,,Overcast,30,2013-03-16 08:55:00
3:55 AM,26.1,19.9,78,30.14,10.0,NNE,10.4,-,N/A,,Overcast,30,2013-03-16 09:55:00
4:33 AM,26.6,17.6,69,30.12,10.0,NE,8.1,-,N/A,,Overcast,40,2013-03-16 10:33:00
4:55 AM,25.0,18.0,75,30.15,10.0,NE,8.1,-,N/A,,Overcast,50,2013-03-16 10:55:00
5:10 AM,24.8,17.6,74,30.13,10.0,ENE,8.1,-,N/A,,Overcast,70,2013-03-16 11:10:00
5:55 AM,24.1,17.1,75,30.17,10.0,ENE,8.1,-,N/A,,Overcast,70,2013-03-16 11:55:00
6:55 AM,23.0,16.0,74,30.17,10.0,East,8.1,-,N/A,,Overcast,90,2013-03-16 12:55:00
7:55 AM,21.9,16.0,78,30.19,10.0,East,9.2,-,N/A,,Overcast,80,2013-03-16 13:55:00
8:55 AM,21.9,15.1,75,30.20,10.0,East,6.9,-,N/A,,Overcast,90,2013-03-16 14:55:00
9:55 AM,21.9,15.1,75,30.22,10.0,East,6.9,-,N/A,,Overcast,100,2013-03-16 15:55:00
10:55 AM,25.0,17.1,72,30.21,10.0,SE,8.1,-,N/A,,Overcast,130,2013-03-16 16:55:00
11:55 AM,27.0,18.0,69,30.20,10.0,SE,4.6,-,N/A,,Overcast,130,2013-03-16 17:55:00
12:55 PM,28.9,19.0,67,30.17,10.0,East,4.6,-,N/A,,Overcast,100,2013-03-16 18:55:00
1:10 PM,30.2,19.4,64,30.09,10.0,East,5.8,-,N/A,,Overcast,90,2013-03-16 19:10:00
1:55 PM,30.9,19.9,64,30.12,10.0,East,4.6,-,N/A,,Mostly Cloudy,100,2013-03-16 19:55:00
2:55 PM,32.0,19.9,61,30.09,10.0,ENE,4.6,-,N/A,,Overcast,70,2013-03-16 20:55:00
3:55 PM,33.1,19.9,59,30.09,10.0,East,6.9,-,N/A,,Overcast,100,2013-03-16 21:55:00
4:55 PM,32.0,19.0,59,30.10,10.0,East,13.8,-,N/A,,Overcast,90,2013-03-16 22:55:00
5:55 PM,28.0,23.0,81,30.10,2.5,East,12.7,-,0.00,Snow,Light Snow,100,2013-03-16 23:55:00
6:09 PM,26.6,21.2,80,30.03,1.8,East,13.8,-,0.00,Snow,Light Snow,90,2013-03-17 00:09:00
6:27 PM,26.6,23.0,86,30.03,0.8,East,16.1,-,0.00,Snow,Light Snow,80,2013-03-17 00:27:00
6:46 PM,24.8,23.0,93,30.04,1.2,East,17.3,-,0.01,Snow,Light Snow,90,2013-03-17 00:46:00
6:55 PM,25.0,21.9,88,30.12,2.0,East,13.8,-,0.01,Snow,Light Snow,90,2013-03-17 00:55:00
7:03 PM,24.8,21.2,86,30.04,2.0,East,11.5,-,0.00,Snow,Light Snow,80,2013-03-17 01:03:00
7:11 PM,24.8,21.2,86,30.05,1.5,East,12.7,-,0.01,Snow,Light Snow,90,2013-03-17 01:11:00
7:27 PM,24.8,21.2,86,30.05,1.0,East,12.7,-,0.02,Snow,Light Snow,90,2013-03-17 01:27:00
7:36 PM,24.8,21.2,86,30.05,0.8,East,11.5,-,0.03,Snow,Light Snow,100,2013-03-17 01:36:00
7:47 PM,24.8,21.2,86,30.06,0.8,East,9.2,-,0.04,Snow,Light Snow,100,2013-03-17 01:47:00
7:55 PM,24.1,23.0,96,30.13,0.5,East,9.2,-,0.06,Fog-Snow,Snow,100,2013-03-17 01:55:00
8:20 PM,24.8,21.2,86,30.05,1.0,East,8.1,-,0.03,Snow,Light Snow,90,2013-03-17 02:20:00
8:36 PM,24.8,23.0,93,30.07,1.0,NE,8.1,-,0.05,Snow,Light Snow,50,2013-03-17 02:36:00
8:43 PM,24.8,23.0,93,30.07,0.8,ENE,6.9,-,0.05,Snow,Light Snow,60,2013-03-17 02:43:00
8:48 PM,24.8,23.0,93,30.07,1.0,ENE,8.1,-,0.05,Snow,Light Snow,60,2013-03-17 02:48:00
8:55 PM,24.1,23.0,96,30.15,1.5,ENE,9.2,-,0.06,Snow,Light Snow,60,2013-03-17 02:55:00
9:07 PM,24.8,23.0,93,30.06,2.5,ENE,10.4,-,0.00,Snow,Light Snow,70,2013-03-17 03:07:00
9:18 PM,24.8,23.0,93,30.06,3.0,East,8.1,-,0.00,Snow,Light Snow,90,2013-03-17 03:18:00
9:26 PM,24.8,23.0,93,30.06,4.0,East,9.2,-,0.00,Snow,Light Snow,90,2013-03-17 03:26:00
9:55 PM,25.0,23.0,92,30.13,3.0,East,11.5,-,0.01,Snow,Light Snow,100,2013-03-17 03:55:00
10:13 PM,24.8,23.0,93,30.04,4.0,ESE,11.5,-,0.00,,Overcast,110,2013-03-17 04:13:00
10:25 PM,24.8,23.0,93,30.03,5.0,ESE,10.4,-,0.00,,Overcast,110,2013-03-17 04:25:00
10:55 PM,25.0,21.9,88,30.09,7.0,ESE,13.8,-,0.00,,Overcast,110,2013-03-17 04:55:00
11:55 PM,25.0,21.9,88,30.05,10.0,ESE,18.4,26.5,0.00,,Overcast,120,2013-03-17 05:55:00